Time,TemperatureF,DewpointF,PressureIn,WindDirection,WindDirectionDegrees,WindSpeedMPH,WindSpeedGustMPH,Humidity,HourlyPrecipIn,Conditions,Clouds,dailyrainin,SolarRadiationWatts/m^2,SoftwareType,DateUTC
2013-03-15 00:02:00,46.0,44.0,-100.00,South,190,5.0,9.0,91,0.00,,,0.00,6.000000,,2013-03-15 07:02:00,
2013-03-15 00:12:00,46.0,44.0,-100.00,South,190,5.0,9.0,91,0.00,,,0.00,6.000000,,2013-03-15 07:12:00,
2013-03-15 00:32:00,46.0,44.0,-100.00,SSW,196,4.0,10.0,93,0.00,,,0.00,6.000000,,2013-03-15 07:32:00,
2013-03-15 00:42:00,46.0,44.0,-100.00,SSW,196,4.0,10.0,93,0.00,,,0.00,6.000000,,2013-03-15 07:42:00,
2013-03-15 00:52:00,46.0,44.0,-100.00,SSW,196,4.0,10.0,93,0.00,,,0.00,6.000000,,2013-03-15 07:52:00,
2013-03-15 01:02:00,46.0,44.0,-100.00,SSW,196,4.0,10.0,93,0.00,,,0.00,6.000000,,2013-03-15 08:02:00,
2013-03-15 01:12:00,46.0,44.0,-100.00,SSW,196,4.0,10.0,93,0.00,,,0.00,6.000000,,2013-03-15 08:12:00,
2013-03-15 01:33:00,46.0,45.0,-100.00,SW,218,0.0,6.0,96,0.00,,,0.00,6.000000,,2013-03-15 08:33:00,
2013-03-15 01:42:00,46.0,45.0,-100.00,SW,218,0.0,6.0,96,0.00,,,0.00,6.000000,,2013-03-15 08:42:00,
2013-03-15 01:52:00,46.0,45.0,-100.00,SW,218,0.0,6.0,96,0.00,,,0.00,6.000000,,2013-03-15 08:52:00,
2013-03-15 02:02:00,46.0,45.0,-100.00,SW,218,0.0,6.0,96,0.00,,,0.00,6.000000,,2013-03-15 09:02:00,
2013-03-15 02:11:00,46.0,45.0,-100.00,SW,218,0.0,6.0,96,0.00,,,0.00,6.000000,,2013-03-15 09:11:00,
2013-03-15 02:33:00,47.0,47.0,-100.00,SW,217,0.0,5.0,99,0.00,,,0.00,6.000000,,2013-03-15 09:33:00,
2013-03-15 02:43:00,47.0,47.0,-100.00,SW,217,0.0,5.0,99,0.00,,,0.00,6.000000,,2013-03-15 09:43:00,
2013-03-15 02:53:00,47.0,47.0,-100.00,SW,217,0.0,5.0,99,0.00,,,0.00,6.000000,,2013-03-15 09:53:00,
2013-03-15 03:02:00,47.0,47.0,-100.00,SW,217,0.0,5.0,99,0.00,,,0.00,6.000000,,2013-03-15 10:02:00,
2013-03-15 03:12:00,47.0,47.0,-100.00,SW,217,0.0,5.0,99,0.00,,,0.00,6.000000,,2013-03-15 10:12:00,
2013-03-15 03:33:00,47.0,47.0,-100.00,SSW,192,0.0,0.0,99,0.00,,,0.00,6.000000,,2013-03-15 10:33:00,
2013-03-15 03:43:00,47.0,47.0,-100.00,SSW,192,0.0,0.0,99,0.00,,,0.00,6.000000,,2013-03-15 10:43:00,
2013-03-15 03:52:00,47.0,47.0,-100.00,SSW,192,0.0,0.0,99,0.00,,,0.00,6.000000,,2013-03-15 10:52:00,
2013-03-15 04:02:00,47.0,47.0,-100.00,SSW,192,0.0,0.0,99,0.00,,,0.00,6.000000,,2013-03-15 11:02:00,
2013-03-15 04:11:00,47.0,47.0,-100.00,SSW,192,0.0,0.0,99,0.00,,,0.00,6.000000,,2013-03-15 11:11:00,
2013-03-15 04:32:00,45.0,30.0,-100.00,SSW,212,0.0,4.0,56,0.00,,,0.00,6.000000,,2013-03-15 11:32:00,
2013-03-15 05:32:00,46.0,31.0,-100.00,SSW,195,0.0,4.0,55,0.00,,,0.00,6.000000,,2013-03-15 12:32:00,
2013-03-15 06:42:00,46.0,35.0,-100.00,South,189,0.0,6.0,66,0.00,,,0.00,6.000000,,2013-03-15 13:42:00,
2013-03-15 06:52:00,46.0,35.0,-100.00,South,189,0.0,6.0,66,0.00,,,0.00,6.000000,,2013-03-15 13:52:00,
2013-03-15 07:33:00,46.0,33.0,-100.00,SSW,208,0.0,5.0,61,0.00,,,0.00,6.000000,,2013-03-15 14:33:00,
2013-03-15 08:33:00,47.0,34.0,-100.00,ESE,110,0.0,4.0,60,0.00,,,0.00,28.000000,,2013-03-15 15:33:00,
2013-03-15 09:32:00,48.0,38.0,-100.00,East,94,0.0,3.0,69,0.00,,,0.00,81.000000,,2013-03-15 16:32:00,
2013-03-15 09:42:00,48.0,38.0,-100.00,East,94,0.0,3.0,69,0.00,,,0.00,81.000000,,2013-03-15 16:42:00,
2013-03-15 09:52:00,48.0,38.0,-100.00,East,94,0.0,3.0,69,0.00,,,0.00,81.000000,,2013-03-15 16:52:00,
2013-03-15 10:02:00,48.0,38.0,-100.00,East,94,0.0,3.0,69,0.00,,,0.00,81.000000,,2013-03-15 17:02:00,
2013-03-15 10:12:00,48.0,38.0,-100.00,East,94,0.0,3.0,69,0.00,,,0.00,81.000000,,2013-03-15 17:12:00,
2013-03-15 10:32:00,51.0,46.0,-100.00,South,176,0.0,3.0,84,0.00,,,0.00,220.000000,,2013-03-15 17:32:00,
2013-03-15 10:42:00,51.0,46.0,-100.00,South,176,0.0,3.0,84,0.00,,,0.00,220.000000,,2013-03-15 17:42:00,
2013-03-15 10:52:00,51.0,46.0,-100.00,South,176,0.0,3.0,84,0.00,,,0.00,220.000000,,2013-03-15 17:52:00,
2013-03-15 11:02:00,51.0,46.0,-100.00,South,176,0.0,3.0,84,0.00,,,0.00,220.000000,,2013-03-15 18:02:00,
2013-03-15 11:11:00,51.0,46.0,-100.00,South,176,0.0,3.0,84,0.00,,,0.00,220.000000,,2013-03-15 18:11:00,
2013-03-15 11:42:00,57.0,43.0,-100.00,South,172,0.0,5.0,59,0.00,,,0.00,416.000000,,2013-03-15 18:42:00,
2013-03-15 11:52:00,57.0,43.0,-100.00,South,172,0.0,5.0,59,0.00,,,0.00,416.000000,,2013-03-15 18:52:00,
2013-03-15 12:02:00,57.0,43.0,-100.00,South,172,0.0,5.0,59,0.00,,,0.00,416.000000,,2013-03-15 19:02:00,
2013-03-15 12:12:00,57.0,43.0,-100.00,South,172,0.0,5.0,59,0.00,,,0.00,416.000000,,2013-03-15 19:12:00,
2013-03-15 12:42:00,57.0,44.0,-100.00,SSE,148,0.0,4.0,61,-99.99,,,-99.99,476.000000,,2013-03-15 19:42:00,
2013-03-15 12:52:00,57.0,44.0,-100.00,SSE,148,0.0,4.0,61,-99.99,,,-99.99,476.000000,,2013-03-15 19:52:00,
2013-03-15 13:02:00,57.0,44.0,-100.00,SSE,148,0.0,4.0,61,-99.99,,,-99.99,476.000000,,2013-03-15 20:02:00,
2013-03-15 13:12:00,57.0,44.0,-100.00,SSE,148,0.0,4.0,61,-99.99,,,-99.99,476.000000,,2013-03-15 20:12:00,
2013-03-15 13:42:00,56.0,43.0,-100.00,NNE,28,1.0,5.0,61,0.00,,,0.00,344.000000,,2013-03-15 20:42:00,
2013-03-15 13:52:00,56.0,43.0,-100.00,NNE,28,1.0,5.0,61,0.00,,,0.00,344.000000,,2013-03-15 20:52:00,
2013-03-15 14:02:00,56.0,43.0,-100.00,NNE,28,1.0,5.0,61,0.00,,,0.00,344.000000,,2013-03-15 21:02:00,
2013-03-15 14:11:00,56.0,43.0,-100.00,NNE,28,1.0,5.0,61,0.00,,,0.00,344.000000,,2013-03-15 21:11:00,
2013-03-15 14:43:00,59.0,43.0,-100.00,North,10,2.0,7.0,55,0.00,,,0.00,419.000000,,2013-03-15 21:43:00,
2013-03-15 14:52:00,59.0,43.0,-100.00,North,10,2.0,7.0,55,0.00,,,0.00,419.000000,,2013-03-15 21:52:00,
2013-03-15 15:03:00,59.0,43.0,-100.00,North,10,2.0,7.0,55,0.00,,,0.00,419.000000,,2013-03-15 22:03:00,
2013-03-15 15:12:00,59.0,43.0,-100.00,North,10,2.0,7.0,55,0.00,,,0.00,419.000000,,2013-03-15 22:12:00,
2013-03-15 15:33:00,58.0,41.0,-100.00,WNW,283,3.0,10.0,53,0.00,,,0.00,400.000000,,2013-03-15 22:33:00,
2013-03-15 15:42:00,58.0,41.0,-100.00,WNW,283,3.0,10.0,53,0.00,,,0.00,400.000000,,2013-03-15 22:42:00,
2013-03-15 15:52:00,58.0,41.0,-100.00,WNW,283,3.0,10.0,53,0.00,,,0.00,400.000000,,2013-03-15 22:52:00,
2013-03-15 16:02:00,58.0,41.0,-100.00,WNW,283,3.0,10.0,53,0.00,,,0.00,400.000000,,2013-03-15 23:02:00,
2013-03-15 16:12:00,58.0,41.0,-100.00,WNW,283,3.0,10.0,53,0.00,,,0.00,400.000000,,2013-03-15 23:12:00,
2013-03-15 16:43:00,62.0,41.0,-100.00,West,271,2.0,10.0,46,0.00,,,0.00,670.000000,,2013-03-15 23:43:00,
2013-03-15 16:53:00,62.0,41.0,-100.00,West,271,2.0,10.0,46,0.00,,,0.00,670.000000,,2013-03-15 23:53:00,
2013-03-15 17:02:00,62.0,41.0,-100.00,West,271,2.0,10.0,46,0.00,,,0.00,670.000000,,2013-03-16 00:02:00,
2013-03-15 17:12:00,62.0,41.0,-100.00,West,271,2.0,10.0,46,0.00,,,0.00,670.000000,,2013-03-16 00:12:00,
2013-03-15 18:32:00,55.0,38.0,-100.00,West,277,0.0,8.0,53,-99.99,,,0.00,251.000000,,2013-03-16 01:32:00,
2013-03-15 18:42:00,55.0,38.0,-100.00,West,277,0.0,8.0,53,-99.99,,,0.00,251.000000,,2013-03-16 01:42:00,
2013-03-15 18:52:00,55.0,38.0,-100.00,West,277,0.0,8.0,53,-99.99,,,0.00,251.000000,,2013-03-16 01:52:00,
2013-03-15 19:02:00,55.0,38.0,-100.00,West,277,0.0,8.0,53,-99.99,,,0.00,251.000000,,2013-03-16 02:02:00,
2013-03-15 19:12:00,55.0,38.0,-100.00,West,277,0.0,8.0,53,-99.99,,,0.00,251.000000,,2013-03-16 02:12:00,
2013-03-15 19:43:00,50.0,35.0,-100.00,North,358,0.0,5.0,57,0.00,,,0.00,51.000000,,2013-03-16 02:43:00,
2013-03-15 19:52:00,50.0,35.0,-100.00,North,358,0.0,5.0,57,0.00,,,0.00,51.000000,,2013-03-16 02:52:00,
2013-03-15 20:43:00,47.0,44.0,-100.00,NW,323,2.0,6.0,89,0.00,,,0.00,8.000000,,2013-03-16 03:43:00,
2013-03-15 20:53:00,47.0,44.0,-100.00,NW,323,2.0,6.0,89,0.00,,,0.00,8.000000,,2013-03-16 03:53:00,
2013-03-15 21:02:00,47.0,44.0,-100.00,NW,323,2.0,6.0,89,0.00,,,0.00,8.000000,,2013-03-16 04:02:00,
2013-03-15 21:12:00,47.0,44.0,-100.00,NW,323,2.0,6.0,89,0.00,,,0.00,8.000000,,2013-03-16 04:12:00,
2013-03-15 21:33:00,48.0,45.0,-100.00,WNW,300,2.0,9.0,90,0.00,,,0.00,6.000000,,2013-03-16 04:33:00,
2013-03-15 21:43:00,48.0,45.0,-100.00,WNW,300,2.0,9.0,90,0.00,,,0.00,6.000000,,2013-03-16 04:43:00,
2013-03-15 21:53:00,48.0,45.0,-100.00,WNW,300,2.0,9.0,90,0.00,,,0.00,6.000000,,2013-03-16 04:53:00,
2013-03-15 22:02:00,48.0,45.0,-100.00,WNW,300,2.0,9.0,90,0.00,,,0.00,6.000000,,2013-03-16 05:02:00,
2013-03-15 22:12:00,48.0,45.0,-100.00,WNW,300,2.0,9.0,90,0.00,,,0.00,6.000000,,2013-03-16 05:12:00,
2013-03-15 22:32:00,46.0,45.0,-100.00,SSE,163,0.0,8.0,96,0.00,,,0.00,6.000000,,2013-03-16 05:32:00,
2013-03-15 22:42:00,46.0,45.0,-100.00,SSE,163,0.0,8.0,96,0.00,,,0.00,6.000000,,2013-03-16 05:42:00,
2013-03-15 22:53:00,46.0,45.0,-100.00,SSE,163,0.0,8.0,96,0.00,,,0.00,6.000000,,2013-03-16 05:53:00,
2013-03-15 23:02:00,46.0,45.0,-100.00,SSE,163,0.0,8.0,96,0.00,,,0.00,6.000000,,2013-03-16 06:02:00,
2013-03-15 23:12:00,46.0,45.0,-100.00,SSE,163,0.0,8.0,96,0.00,,,0.00,6.000000,,2013-03-16 06:12:00,
2013-03-15 23:32:00,46.0,39.0,-100.00,SSE,166,0.0,3.0,75,0.00,,,0.00,5.000000,,2013-03-16 06:32:00,
2013-03-15 23:42:00,46.0,39.0,-100.00,SSE,166,0.0,3.0,75,0.00,,,0.00,5.000000,,2013-03-16 06:42:00,
2013-03-15 23:52:00,46.0,39.0,-100.00,SSE,166,0.0,3.0,75,0.00,,,0.00,5.000000,,2013-03-16 06:52:00,